Home   Weather   Mount Pocono   Past weeks
Flag for USA

Past Weather in Mount Pocono, Pennsylvania, USA — Yesterday and Last 2 Weeks

Now
46 °F

Overcast.


Feels Like: 43 °F
Forecast: 43 / 34 °F
Wind: 6 mph from East

Location: Pocono Mountains Municipal Airport

Current Time: Feb 25, 2020 at 11:31:46 am

Latest Report: Feb 25, 2020 at 9:53 am


Visibility: 10 mi

Pressure: 29.85 "Hg (14.29 "Hg at 6059m altitude)

Humidity: 54%

Dew Point: 30 °F

Location of Mount PoconoLocation

Past Weather in Mount Pocono — Graph

°F

Mount Pocono Temperature Yesterday

Maximum temperature yesterday: 52 °F (at 11:53 am)
Minimum temperature yesterday: 30 °F (at 5:53 am)
Average temperature yesterday: 42 °F

High & Low Weather Summary for the Past Weeks

 TemperatureHumidityPressure
High52 °F (Feb 24, 11:53 am)100% (Feb 10, 6:53 pm)30.60 "Hg (Feb 10, 6:53 pm)
Low0 °F (Feb 15, 5:53 am)17% (Feb 23, 2:53 pm)29.57 "Hg (Feb 13, 11:55 am)
Average30 °F68%30.11 "Hg
* Reported Feb 10 9:17 am — Feb 25 9:53 am, Mount Pocono. Weather by CustomWeather, © 2020

Note: Actual official high and low records may vary slightly from our data, if they occured in-between our weather recording intervals... More about our weather records

Mount Pocono Weather History for the Previous 24 Hours

Scroll right to see more
 ConditionsComfort  
Time TempWeatherWind HumidityBarometerVisibility
9:53 am
Tue, Feb 25
46 °FOvercast.6 mph54%29.85 "Hg10 mi
8:53 am44 °FOvercast.No wind60%29.86 "Hg10 mi
7:53 am40 °FOvercast.5 mph70%29.86 "Hg10 mi
6:53 am38 °FLight rain. Mostly cloudy.3 mph73%29.85 "Hg10 mi
5:53 am38 °FOvercast.6 mph68%29.85 "Hg10 mi
4:53 am38 °FOvercast.5 mph68%29.85 "Hg10 mi
3:53 am38 °FOvercast.6 mph68%29.87 "Hg10 mi
2:53 am39 °FPassing clouds.5 mph57%29.86 "Hg10 mi
1:53 am34 °FPassing clouds.No wind64%29.87 "Hg10 mi
12:53 am36 °FOvercast.No wind59%29.88 "Hg10 mi
11:53 pm
Mon, Feb 24
38 °FMostly cloudy.No wind55%29.89 "Hg10 mi
10:53 pm38 °FPassing clouds.No wind58%29.91 "Hg10 mi
9:53 pm41 °FClear.No wind47%29.94 "Hg10 mi
8:53 pm39 °FClear.No wind53%29.94 "Hg10 mi
7:53 pm40 °FPassing clouds.No wind49%29.94 "Hg10 mi
6:53 pm42 °FPassing clouds.No wind43%29.97 "Hg10 mi
5:53 pm46 °FClear.3 mph34%29.97 "Hg10 mi
4:53 pm50 °FPassing clouds.7 mph29%29.93 "Hg10 mi
3:53 pm51 °FOvercast.10 mph28%29.95 "Hg10 mi
2:53 pm51 °FOvercast.12 mph29%29.96 "Hg10 mi
1:53 pm52 °FOvercast.5 mph28%29.97 "Hg10 mi
12:53 pm52 °FOvercast.9 mph28%29.98 "Hg10 mi
11:53 am52 °FCool.9 mph30%30.01 "Hg10 mi
Weather by CustomWeather, © 2020

See weather overview

Advertising